Regional Weather Roundup
Issued by NWS Upton, NY

Current Version | Previous Version | Graphics & Text | Print | Product List | Glossary Off
Versions: 1 2 3 4 5 6 7 8 9 10 11 12 13 14 15 16 17 18 19 20 21 22 23 24 25 26 27 28 29 30 31 32 33 34 35 36 37 38 39 40 41 42 43 44 45 46

000
ASUS41 KOKX 012305
RWROKX

REGIONAL WEATHER ROUNDUP
NATIONAL WEATHER SERVICE NEW YORK NY
700 PM EDT WED OCT 01 2014

NOTE: "FAIR" INDICATES FEW OR NO CLOUDS BELOW 12,000 FEET WITH NO
SIGNIFICANT WEATHER AND/OR OBSTRUCTIONS TO VISIBILITY.

NYZ071-072-176-178-NJZ106-104-020000-
NEW YORK CITY METRO AREA


CITY           SKY/WX    TMP DP  RH WIND       PRES   REMARKS
CENTRAL PARK   CLOUDY    64  57  78 VRB6      30.07R
LAGUARDIA APRT CLOUDY    66  57  72 NE14      30.04R
KENNEDY INTL   CLOUDY    65  57  75 N12       30.05R
NEWARK/LIBERTY CLOUDY    65  59  81 NE9       30.05R
BRNX BOT. GARD   N/A     63  57  82 SE5       30.05R
TETERBORO      CLOUDY    65  58  78 NE3       30.04R
$$

NYZ177-179-078>081-020000-
LONG ISLAND NEW YORK

CITY           SKY/WX    TMP DP  RH WIND       PRES   REMARKS
FARMINGDALE    CLOUDY    62  58  86 NE8       30.04R
ISLIP          CLOUDY    61  57  87 NE10      30.02R FOG
SHIRLEY        CLOUDY    61  57  87 N7        30.04S
WESTHAMPTON    CLOUDY    60  58  92 N9        30.04S
MONTAUK POINT    N/A     60  58  92 N14       30.03S
$$

NYZ052-065-067-020000-
HUDSON VALLEY

CITY           SKY/WX    TMP DP  RH WIND       PRES   REMARKS
WHITE PLAINS   MOCLDY    61  56  83 NE6       30.05R
NEWBURGH       CLOUDY    61  59  94 NE8       30.07R
MONTGOMERY     CLOUDY    63  57  81 NE5       30.07R
POUGHKEEPSIE   LGT RAIN  62  60  93 N5        30.07R
ALBANY         DRIZZLE   63  57  81 CALM      30.10R
$$

NJZ001-105-106-008-010-013-015-019>022-104-020000-
NEW JERSEY

CITY           SKY/WX    TMP DP  RH WIND       PRES   REMARKS
NEWARK/LIBERTY CLOUDY    65  59  81 NE9       30.05R
TETERBORO      CLOUDY    65  58  78 NE3       30.04R
CALDWELL       CLOUDY    64  56  75 NE3       30.06R
MORRISTOWN     CLOUDY    64  59  82 NE5       30.06R
SOMERVILLE     CLOUDY    66  56  70 N3        30.03S
LINDEN         CLOUDY    69  61  76 NE5       30.06R
SUSSEX         CLOUDY    65  57  75 CALM      30.06S
ANDOVER          N/A     62  57  83 VRB6      30.07R
TRENTON        CLOUDY    65  56  72 NE6       30.04R
MILLVILLE      CLEAR     64  58  80 NE7       30.03R
ATLANTIC CITY  CLOUDY    64  60  87 N3        30.03S
WRIGHTSTOWN    CLOUDY    63  59  88 NE6       30.02R
TOMS RIVER     CLOUDY    63  57  82 CALM      30.04S
BELMAR         CLOUDY    63  55  77 NE8       30.04R
$$

PAZ047>061-062-071-020000-
EASTERN PENNSYLVANIA

CITY           SKY/WX    TMP DP  RH WIND       PRES   REMARKS
PHILADELPHIA   PTCLDY    66  57  72 E8        30.04R
ALLENTOWN      PTCLDY    65  55  70 E8        30.05R
SCRANTON       CLEAR     66  53  63 E5        30.05R
$$

CTZ002-004>006-009-010-012-RIZ004-006-007-MAZ004-011-015-020000-
SOUTHERN NEW ENGLAND
 IN CT

CITY           SKY/WX    TMP DP  RH WIND       PRES   REMARKS
BRADLEY INTL   DRIZZLE   60  56  86 NE12      30.08R
HARTFORD       CLOUDY    60  56  86 N8        30.07R
DANBURY        CLOUDY    61  56  83 NE7       30.08R
WTRBRY/OXFORD  NOT AVBL
BRIDGEPORT     CLOUDY    61  57  87 NE12      30.05R
MERIDEN        CLOUDY    60  57  89 N5        30.07R
NEW HAVEN      LGT RAIN  62  58  86 N13       30.05S FOG
CHESTER        CLOUDY    57  55  94 NE6       30.06R
GROTON         CLOUDY    58  57  97 N12       30.03S
WILLIMANTIC    CLOUDY    58  55  90 N9        30.07R

 IN RI

CITY           SKY/WX    TMP DP  RH WIND       PRES   REMARKS
PROVIDENCE     CLOUDY    58  56  93 N15       30.05S
BLOCK ISLAND   CLOUDY    61  55  82 NE9G16    30.01F
WESTERLY       CLOUDY    58  57  97 N8        30.04R FOG

 IN MA

CITY           SKY/WX    TMP DP  RH WIND       PRES   REMARKS
BOSTON         LGT RAIN  57  56  96 NE16G22   30.08S FOG
WORCESTER      LGT RAIN  54  53  97 NE10      30.10R FOG
WESTFIELD      CLOUDY    59  56  89 N7        30.09S FOG
PROVINCETOWN   CLOUDY    61  57  88 NE16G24   30.06S
NANTUCKET      HVY RAIN  61  59  93 N18       30.01R VSB 1
$$

ANZ330-335-338-340-345-350-353-355-020000-
COASTAL MARINE OBSERVATIONS


STATION/POSITION TIME  SKY/WX   TEMP    WIND        PRES    VSBY  WAVE
                                AIR SEA DIR/SP/G                  HT/PER
                 (UTC)          (F)     (DEG/KT/KT) (MB)    (MI)  (FT/S)
NY HARB ENTRANCE NOT AVBL
4S FIRE IS       NOT AVBL
20S FIRE ISLAND  2300            63 67   20/ 17/ 21 1016.0          5/ 7
23SW MTP         2300                                 N/A           6/ 6
HUDSON CANYON    2300            66 70   10/ 21/ 25 1014.2          7/ 6
EXECUTION ROCKS  2300            65 68   20/ 12/ 17   N/A
WESTERN LI SOUND 2200            65      30/ 12/ 16   N/A           1/ 3
CENTRAL LI SOUND 2200            60 68   10/ 14/ 17   N/A           2/ 3
EASTERN LI SOUND 2200            61 66   30/ 14/ 19   N/A
ROBBINS REEF     2300            65      50/ 13/ 16 1016.0
$$


>>>>>>>>>>>>>>>>>>>>>>>>>>>> KEY <<<<<<<<<<<<<<<<<<<<<<<<<<<
>                                                          <
>     SKY/WX - SKY CONDITION/PRESENT WEATHER               <
>     TMP    - TEMPERATURE IN FAHRENHEIT                   <
>     DP     - DEWPOINT IN FAHRENHEIT                      <
>     RH     - RELATIVE HUMIDITY IN PERCENT                <
>     WIND   - DIRECTION AND SPEED IN MPH                  <
>     PRES   - MEAN SEA LEVEL PRESSURE IN INCHES OF HG     <
>     WCI    - WIND CHILL INDEX                            <
>     VSB    - VISIBILITY IN MILES                         <
>     HX     - HEAT INDEX                                  <
>     TC     - TEMPERATURE IN CELSIUS                      <
>     VRB    - VARIABLE WIND DIRECTION                     <
>                                                          <
>>>>>>>>>>>>>>>>>>>>>>>>>>>> KEY <<<<<<<<<<<<<<<<<<<<<<<<<<<





USA.gov is the U.S. government's official web portal to all federal, state and local government web resources and services.